TimeAKDT,TemperatureF,Dew PointF,Humidity,Sea Level PressureIn,VisibilityMPH,Wind Direction,Wind SpeedMPH,Gust SpeedMPH,PrecipitationIn,Events,Conditions,WindDirDegrees,DateUTC
12:58 AM,38.8,36.0,89,29.00,10.0,SW,3.5,-,0.00,,Overcast,230,2013-10-09 08:58:00
1:58 AM,38.7,35.2,87,29.01,10.0,NNW,5.8,-,0.00,Rain,Light Rain,340,2013-10-09 09:58:00
2:43 AM,37.4,37.4,100,29.01,10.0,Calm,Calm,-,N/A,Rain,Light Rain,0,2013-10-09 10:43:00
2:58 AM,37.9,36.5,95,29.03,10.0,Calm,Calm,-,0.01,Rain,Light Rain,0,2013-10-09 10:58:00
3:58 AM,37.8,36.1,94,29.06,10.0,SW,5.8,-,0.01,Rain,Light Rain,230,2013-10-09 11:58:00
4:28 AM,37.4,35.6,93,29.06,10.0,West,6.9,-,N/A,Rain,Light Rain,270,2013-10-09 12:28:00
4:58 AM,37.2,35.6,94,29.11,10.0,West,10.4,-,0.01,Rain,Light Rain,270,2013-10-09 12:58:00
5:13 AM,37.4,35.6,93,29.10,9.0,West,11.5,-,N/A,Rain,Light Rain,280,2013-10-09 13:13:00
5:28 AM,35.6,35.6,100,29.12,10.0,West,9.2,-,N/A,Rain,Light Rain,270,2013-10-09 13:28:00
5:58 AM,36.0,34.3,94,29.16,10.0,West,10.4,-,0.01,Rain,Light Rain,270,2013-10-09 13:58:00
6:43 AM,35.6,33.8,93,29.18,10.0,West,8.1,-,N/A,Rain,Light Rain,270,2013-10-09 14:43:00
6:58 AM,36.0,34.3,94,29.20,10.0,WNW,10.4,-,0.03,Rain,Light Rain,290,2013-10-09 14:58:00
7:28 AM,35.6,35.6,100,29.21,10.0,West,8.1,-,N/A,,Overcast,270,2013-10-09 15:28:00
7:58 AM,36.3,34.2,92,29.25,10.0,West,10.4,-,0.00,,Overcast,280,2013-10-09 15:58:00
8:58 AM,36.1,33.3,89,29.29,10.0,West,8.1,-,N/A,,Overcast,260,2013-10-09 16:58:00
9:58 AM,36.1,33.6,91,29.32,10.0,West,11.5,-,N/A,,Overcast,260,2013-10-09 17:58:00
10:58 AM,36.5,33.8,90,29.37,10.0,West,17.3,-,N/A,,Overcast,260,2013-10-09 18:58:00
11:51 AM,37.4,33.8,87,29.37,3.0,West,12.7,28.8,N/A,Rain,Light Rain Showers,270,2013-10-09 19:51:00
11:58 AM,37.4,34.2,88,29.39,3.0,West,13.8,24.2,N/A,Rain,Light Rain Showers,270,2013-10-09 19:58:00
12:58 PM,36.3,33.8,91,29.44,10.0,West,12.7,-,0.01,Rain,Light Rain,270,2013-10-09 20:58:00
1:43 PM,37.4,33.8,87,29.44,10.0,West,12.7,24.2,N/A,Rain,Light Rain,260,2013-10-09 21:43:00
1:58 PM,36.1,33.8,91,29.47,3.0,West,12.7,20.7,0.02,Rain,Light Rain Showers,270,2013-10-09 21:58:00
2:58 PM,36.5,33.8,90,29.49,6.0,West,17.3,26.5,0.01,Rain,Light Rain,260,2013-10-09 22:58:00
3:28 PM,37.4,32.0,81,29.48,6.0,West,15.0,24.2,N/A,Rain,Light Rain,260,2013-10-09 23:28:00
3:58 PM,36.3,33.8,91,29.52,6.0,WSW,15.0,21.9,0.01,Rain,Light Rain,250,2013-10-09 23:58:00
4:58 PM,36.0,33.3,90,29.56,5.0,West,13.8,23.0,0.00,Rain,Light Rain,260,2013-10-10 00:58:00
5:58 PM,35.8,32.9,89,29.58,5.0,WSW,15.0,24.2,0.01,Rain,Light Rain,250,2013-10-10 01:58:00
6:28 PM,35.6,32.0,87,29.57,3.0,WSW,13.8,18.4,N/A,Rain-Snow,Light Rain,250,2013-10-10 02:28:00
6:58 PM,35.4,32.4,89,29.61,5.0,West,16.1,24.2,0.01,Rain,Light Rain,260,2013-10-10 02:58:00
7:43 PM,35.6,32.0,87,29.59,10.0,West,11.5,21.9,N/A,,Overcast,260,2013-10-10 03:43:00
7:58 PM,35.4,32.4,89,29.64,10.0,West,10.4,20.7,0.00,,Overcast,260,2013-10-10 03:58:00
8:58 PM,34.7,31.5,88,29.66,10.0,West,12.7,19.6,N/A,,Overcast,260,2013-10-10 04:58:00
9:28 PM,35.6,32.0,87,29.63,10.0,West,12.7,-,N/A,,Overcast,270,2013-10-10 05:28:00
9:58 PM,34.9,30.2,83,29.67,10.0,Variable,6.9,-,N/A,,Overcast,0,2013-10-10 05:58:00
10:58 PM,35.1,29.3,80,29.70,10.0,WSW,4.6,-,N/A,,Overcast,240,2013-10-10 06:58:00
11:58 PM,35.2,28.8,77,29.72,10.0,Variable,5.8,-,N/A,,Overcast,0,2013-10-10 07:58:00